Tracking 22925 objects as of 6-May-2021
HD Live streaming from Space Station
objects crossing your sky now

THORAD AGENA D DEB

Track THORAD AGENA D DEB now!
10-day predictions


NORAD ID: 20360
Int'l Code: 1970-025QF
Perigee: 924.1 km
Apogee: 971.5 km
Inclination: 100.4 °
Period: 103.9 minutes
Semi major axis: 7318 km
RCS: 0.0096 m2 (small)
Launch date: April 8, 1970
Source: United States (US)
Launch site: AIR FORCE WESTERN TEST RANGE (AFWTR)

Note: This is SATELLITE DEBRIS
aabbcc
Your satellite tracking list
Your tracking list is empty




NASA's NSSDC Master Catalog

Two Line Element Set (TLE):
1 20360U 70025QF  21125.85374795  .00001213  00000-0  10855-2 0  9992
2 20360 100.4168 165.6692 0032508  90.7618  85.3914 13.86576171571421
Source of the keplerian elements: AFSPC